CZ-6A DEB, 60625

Orbit data source: Space-Track

CZ-6A DEB, 60625 is space debris in LEO originally from a launch on Tue, 06 Aug 2024 UTC launched from the Taiyaun Space Center, China (TSC). Debris objects in space refer to the collection of defunct objects orbiting the Earth. Examples of debris include non-operational satellites, rocket bodies, and fragments generated from explosions, collisions, or faulty payload assembly.

Loading next visibility...
Identifier
60625, 2024-140AA
Orbit
LEO
Country
Flag of CNCN / PRC
Related business
Manufacturer
SAST
Mission
Spacecraft
Bus & Motor
Unknown
Mass
Unknown
Launch date (UTC)
2024-08-06 (1 year ago)
Launch vehicle
Unknown
Launch site
Taiyaun Space Center, China (TSC)
Object type
Payload
Rocket body
Debris
Shape & HBR
Unknown
Radar Cross Section
Small (<0.1 m²)

Expand to show TLE details & history
Last TLE update: 1 day ago

TLE from 1 day ago
0 CZ-6A DEB
1 60625U 24140AA  25260.66581520  .00004270  00000-0  11974-2 0  9995
2 60625  89.0005 303.8571 0066883 180.5020 179.6128 14.44570405 58514
Epoch: 2025-09-17T15:58Z
TLE epoch observation values (Epoch: 2025-09-17T15:58:46.433Z)
Latitude
-0.00006°
Longitude
67.32513°
Altitude
794.167 km
Speed
7.431 km/s
True Right ascension
20h 15m 25s
True Declination
0° 00' 00"
Sunlit
Object was in full shadow at epoch
Visualization orbit readout
Latitude
Unknown
Longitude
Unknown
Altitude
Unknown
Speed
Unknown
Apparent Right ascension
Unknown
Apparent Declination
Unknown
Sunlit
N/A
Visualization observer readout
Local Sidereal Time
13:03:05
Azimuth
Unknown
Elevation
Unknown
Doppler factor
Unknown
Orbital elements
Apogee altitude
787.964 km
Perigee altitude
692.743 km
Semi-major axis
7,118.491 km
Eccentricity
0.00669
Inclination
89.0005°
RAAN
303.8571°
Arg. of periapsis
180.502°
True anomaly
179.61794°
Mean anomaly
179.6128°
Eccentric anomaly
179.61537°
Mean motion
3.61378 °/min
Orbital period
99.62 mins
BSTAR
0.0011974
Loading maneuver chart data...
Computing Atmospheric mass density...
Loading historical data...
Loading historical data...
Loading historical data...
Loading historical data...
Loading historical data...
Loading historical data...
Loading historical data...

Documentation

Showing up to 5 results
|